Location: Warren
(41.8440°N, 79.1450°W)
Time: 02:39:30
(UTC-04:00)

ISS - Visible Passes

Search period start: 22 July 2018 00:00
Search period end: 01 August 2018 00:00
Orbit: 402 x 408 km, 51.6° (Epoch: 22 July)

Date Brightness Start Highest point End Pass type
(mag) Time Alt. Az. Time Alt. Az. Time Alt. Az.
22 Jul -0.6 00:43:43 10° NW 00:45:41 15° N 00:47:41 10° NE visible
22 Jul -1.3 02:20:23 10° NW 02:23:04 22° NNE 02:25:45 10° ENE visible
22 Jul -4.0 03:56:33 10° WNW 03:59:51 75° SW 04:03:08 10° SE visible
22 Jul -2.3 22:13:02 10° W 22:16:08 39° NNW 22:19:14 10° NE visible
22 Jul -0.7 23:51:10 10° NW 23:53:17 16° N 23:55:25 10° NNE visible
23 Jul -0.9 01:28:22 10° NNW 01:30:43 18° NNE 01:30:56 18° NNE visible
23 Jul -3.4 21:20:41 10° WSW 21:23:56 66° NNW 21:27:12 10° NE visible
23 Jul -0.9 22:58:30 10° WNW 23:00:54 18° NNW 23:03:18 10° NNE visible
24 Jul -0.8 00:36:14 10° NNW 00:38:19 16° N 00:39:32 13° NNE visible
24 Jul -1.3 22:05:49 10° WNW 22:08:32 23° NNW 22:11:16 10° NE visible
24 Jul -0.7 23:43:55 10° NW 23:45:53 15° N 23:47:52 10° NE visible
25 Jul -0.8 01:20:25 10° NW 01:21:14 15° NNW 01:21:14 15° NNW visible
25 Jul -1.9 21:13:13 10° W 21:16:13 33° NNW 21:19:14 10° NE visible
25 Jul -0.8 22:51:24 10° NW 22:53:26 15° N 22:55:29 10° NNE visible
26 Jul -1.1 00:28:23 10° NNW 00:30:29 19° N 00:30:29 19° N visible
26 Jul -0.9 21:58:43 10° NW 22:01:00 17° NNW 22:03:17 10° NNE visible
26 Jul -1.0 23:36:15 10° NNW 23:38:26 16° N 23:39:49 13° NE visible
27 Jul -0.5 01:12:24 10° NW 01:12:27 10° NW 01:12:27 10° NW visible
27 Jul -0.9 22:43:58 10° NW 22:45:58 15° N 22:47:57 10° NE visible
28 Jul -1.1 00:20:21 10° NW 00:21:49 20° NNW 00:21:49 20° NNW visible
28 Jul -0.9 21:51:29 10° NW 21:53:29 15° N 21:55:28 10° NE visible
28 Jul -1.6 23:28:17 10° NW 23:30:52 21° NNE 23:31:14 20° NNE visible
29 Jul -1.2 22:36:09 10° NNW 22:38:25 17° N 22:40:40 10° NE visible
30 Jul -1.0 00:12:15 10° NW 00:13:18 18° NW 00:13:18 18° NW visible
30 Jul -1.0 21:43:54 10° NNW 21:45:56 15° N 21:47:58 10° NE visible
30 Jul -2.1 23:20:09 10° NW 23:22:46 31° N 23:22:46 31° N visible
31 Jul -1.8 22:28:03 10° NW 22:30:45 23° NNE 22:32:14 17° ENE visible
